Flag for U.S.A. Weather past 2 weeks in Springfield, Missouri, U.S.A.

Now
68 °F

Light rain. Fog.


Feels Like: 68 °F
Forecast: 67 / 75 °F
Wind: 8 mph from North

Location: Springfield Regional Airport

Current Time: Jul 7, 2015 at 5:30:32 PM

Latest Report: Jul 7, 2015 at 3:52 PM


Visibility: 1 mi

Pressure: 29.98 "Hg

Humidity: 96%

Dew point: 67 °F

Location of SpringfieldLocation

Historic Weather in Springfield — Graph

°F

Springfield temperature yesterday

Maximum temperature yesterday: 85 °F (at 3:52 PM)
Minimum temperature yesterday: 71 °F (at 12:52 AM)
Average temperature yesterday: 78 °F

Past Weeks' High & Low Weather Summary

 TemperatureHumidityPressure
High92 °F (Jun 24, 3:52 PM)97% (Jun 27, 4:52 AM)30.11 "Hg (Jun 27, 4:52 AM)
Low61 °F (Jun 28, 2:52 AM)45% (Jun 29, 3:52 PM)29.75 "Hg (Jul 2, 12:52 AM)
Average77 °F76%29.95 "Hg
* Reported Jun 22 3:52 PM — Jul 7 3:52 PM, Springfield, Weather by CustomWeather, © 2015

Note: Actual official high and low records may vary slightly from our data, if they occured in-between our weather recording intervals... More about our weather records

Advertising

Springfield weather history for previous 24 hours

 ConditionsComfort  
Time TempWeatherWind HumidityBarometerVisibility
3:52 PM
Tue, Jul 7
68 °FLight rain. Fog.8 mph96%29.98 "Hg1 mi
2:52 PM68 °FLight rain. Fog.8 mph96%29.98 "Hg0 mi
1:52 PM70 °FFog.9 mph97%29.97 "Hg2 mi
12:52 PM75 °FCloudy.9 mph88%29.96 "Hg10 mi
11:52 AM75 °FCloudy.7 mph90%29.95 "Hg10 mi
10:56 AM75 °FMostly cloudy.7 mph90%29.98 "Hg10 mi
10:00 AM76 °FPartly sunny.3 mph88%29.98 "Hg10 mi
8:52 AM75 °FMore clouds than sun.5 mph88%29.94 "Hg10 mi
7:52 AM74 °FScattered clouds.3 mph94%29.91 "Hg8 mi
6:52 AM74 °FMostly cloudy.3 mph91%29.91 "Hg9 mi
5:52 AM74 °FLight rain. Overcast.3 mph94%29.90 "Hg9 mi
4:52 AM74 °FLight rain. Mostly cloudy.5 mph91%29.90 "Hg9 mi
3:52 AM74 °FLight rain. Overcast.No wind94%29.90 "Hg10 mi
2:52 AM74 °FMostly cloudy.5 mph94%29.90 "Hg10 mi
1:52 AM76 °FPassing clouds.3 mph85%29.90 "Hg10 mi
12:52 AM77 °FPassing clouds.8 mph82%29.90 "Hg10 mi
11:52 PM
Mon, Jul 6
77 °FPassing clouds.14 mph85%29.91 "Hg10 mi
10:52 PM77 °FPartly cloudy.9 mph88%29.91 "Hg10 mi
9:52 PM78 °FClear.13 mph87%29.89 "Hg10 mi
8:52 PM78 °FSunny.9 mph87%29.88 "Hg10 mi
7:52 PM80 °FSunny.7 mph81%29.89 "Hg10 mi
6:52 PM81 °FPassing clouds.9 mph77%29.89 "Hg10 mi
5:52 PM83 °FBroken clouds.14 mph70%29.89 "Hg10 mi
Weather by CustomWeather, © 2015

See weather overviewHow to use our weather pages